Flag for U.S.A. Weather past 2 weeks in Naples, Florida, U.S.A.

Now
72 °F

Clear.


Feels Like: N/A
Forecast: 65 / 78 °F
Wind: 3 mph from West

Location: Naples Municipal

Current Time: Mar 1, 2015 at 8:03:03 PM

Latest Report: Mar 1, 2015 at 6:53 PM


Visibility: 9 mi

Pressure: 30.24 "Hg

Humidity: N/A

Dew point: N/A

Location of NaplesLocation

Historic Weather in Naples — Graph

°F

Naples temperature yesterday

Maximum temperature yesterday: 84 °F (at 12:53 PM)
Minimum temperature yesterday: 60 °F (at 12:53 AM)
Average temperature yesterday: 71 °F

Past Weeks' High & Low Weather Summary

 TemperatureHumidityPressure
High84 °F (Feb 28, 12:53 PM)100% (Feb 18, 5:53 AM)30.37 "Hg (Feb 18, 5:53 AM)
Low37 °F (Feb 20, 6:53 AM)20% (Feb 20, 2:53 PM)29.78 "Hg (Feb 26, 2:53 AM)
Average65 °F76%30.11 "Hg
* Reported Feb 14 6:53 PM — Mar 1 6:53 PM, Naples, Weather by CustomWeather, © 2015

Note: Actual official high and low records may vary slightly from our data, if they occured in-between our weather recording intervals... More about our weather records

Advertising

Naples weather history for previous 24 hours

 ConditionsComfort  
Time TempWeatherWind HumidityBarometerVisibility
6:53 PM
Sun, Mar 1
72 °FClear.3 mphN/A30.24 "Hg9 mi
5:53 PM73 °FBroken clouds.6 mphN/A30.23 "Hg10 mi
4:53 PM79 °FBroken clouds.6 mph69%30.22 "Hg10 mi
3:53 PM80 °FBroken clouds.9 mph67%30.21 "Hg10 mi
2:53 PM79 °FBroken clouds.8 mph72%30.23 "Hg10 mi
1:53 PM78 °FBroken clouds.7 mph74%30.23 "Hg10 mi
12:53 PM82 °FPartly sunny.12 mph60%30.26 "Hg10 mi
11:53 AM81 °FPartly sunny.12 mph65%30.29 "Hg10 mi
10:53 AM80 °FBroken clouds.14 mph69%30.30 "Hg10 mi
9:53 AM78 °FScattered clouds.14 mph74%30.30 "Hg10 mi
8:53 AM75 °FSunny.14 mph85%30.30 "Hg9 mi
7:53 AM71 °FSunny.8 mph93%30.28 "Hg7 mi
6:53 AM69 °FFog.7 mph96%30.27 "Hg6 mi
5:53 AM70 °FPartly cloudy.8 mph97%30.26 "Hg7 mi
4:53 AM70 °FMostly cloudy.9 mph97%30.24 "Hg7 mi
3:53 AM70 °FLow clouds.9 mph97%30.24 "Hg7 mi
2:53 AM71 °FMostly cloudy.10 mph96%30.24 "Hg8 mi
1:53 AM71 °FMostly cloudy.10 mph96%30.25 "Hg8 mi
12:53 AM71 °FMostly cloudy.8 mph96%30.27 "Hg7 mi
11:53 PM
Sat, Feb 28
71 °FOvercast.9 mph96%30.28 "Hg8 mi
10:53 PM71 °FOvercast.8 mph96%30.29 "Hg9 mi
9:53 PM70 °FLow clouds.8 mph97%30.27 "Hg9 mi
8:53 PM69 °FPassing clouds.7 mph96%30.27 "Hg10 mi
Weather by CustomWeather, © 2015

See weather overviewHow to use our weather pages